Regional Weather Roundup
Issued by NWS

Home | Current Version | Previous Version | Text Only | Print | Product List | Glossary On
Versions: 1 2 3 4 5 6 7 8 9 10 11 12 13 14 15 16 17 18 19 20 21 22 23 24 25 26 27 28 29 30 31 32 33 34 35 36 37 38 39 40 41 42 43 44 45 46 47 48 49 50
000
ASUS44 KFWD 240215
RWRTX
NORTH TEXAS HOURLY WEATHER ROUNDUP
NATIONAL WEATHER SERVICE FORT WORTH TX
900 PM CDT WED AUG 23 2017

NOTE: "FAIR" INDICATES FEW OR NO CLOUDS BELOW 12,000 FEET WITH NO
SIGNIFICANT WEATHER AND/OR OBSTRUCTIONS TO VISIBILITY.

TXZ118-119-240300-
DALLAS/FORT WORTH METROPLEX

CITY           SKY/WX    TMP DP  RH WIND       PRES   REMARKS
DFW AIRPORT    MOCLDY    83  70  64 E7        29.92R
DALLAS LOVE    MOCLDY    84  71  65 E6        29.93R
FTW MEACHAM    FAIR      83  73  72 N5        29.93R
DAL-EXECUTIVE  CLOUDY    84  72  67 E7        29.93R
FTW-ALLIANCE   MOCLDY    80  73  79 N5        29.94R
FTW-NAS-JRB    FAIR      84  70  62 N6        29.94R
FTW-SPINKS     FAIR      83  69  63 E6        29.95R
ARLINGTON      MOCLDY    85  71  63 E8        29.93R HX  90
GRAND PRAIRIE  CLEAR     86  66  51 NE12      29.93S
ADDISON        CLOUDY    82  70  65 E7        29.95
MESQUITE         N/A     80  71  74 CALM      29.93S
LANCASTER      CLOUDY    83  72  69 NE5       29.94S
$$

TXZ091>094-102>105-117-120-121-131>134-240300-
NORTH CENTRAL TEXAS

CITY           SKY/WX    TMP DP  RH WIND       PRES   REMARKS
SHRMAN/DENISON FAIR      76  71  85 CALM      29.97S
GAINESVILLE    FAIR      75  71  87 N3        29.98S
BOWIE          FAIR      73  71  91 CALM      29.97S
BRIDGEPORT     FAIR      78  74  88 CALM      29.97S
DECATUR        FAIR      77  72  85 NE3         N/A
DENTON         FAIR      80  71  74 NE9       29.94R
MCKINNEY       FAIR      78  74  87 N3        29.94S
BONHAM         FAIR      77  73  88 CALM      29.95S
GREENVILLE     CLOUDY    81  72  74 CALM      29.94S
ROCKWALL       FAIR      79  72  77 NE5       29.94R
TERRELL        FAIR      81  71  71 N5        29.93S
WAXAHACHIE     FAIR      81  72  75 NE3       29.95R
CLEBURNE       CLOUDY    84  72  65 E6        29.95S
GRANBURY       FAIR      81  72  73 N3        29.95S
$$

TXZ083>090-098>101-113>116-127>130-139>142-154-155-240300-
WESTERN NORTH TEXAS

CITY           SKY/WX    TMP DP  RH WIND       PRES   REMARKS
WICHITA FALLS  FAIR      79  69  71 E7        29.97R
WF-KICKAPOO    FAIR      80  71  73 NE6       29.99R
VERNON         FAIR      78  66  66 NE6       30.00R
ABILENE        MOCLDY    78  73  84 E5        30.00R
ABILENE-DYESS  MOCLDY    81  69  66 SE3       29.98R
GRAHAM         MOCLDY    77  74  90 CALM      29.96R
BRECKENRIDGE   FAIR      80  67  64 E8        29.97R
CISCO          CLOUDY    81  72  74 NE6       30.00R
EASTLAND       FAIR      78  69  75 NE5       29.97S
RANGER         FAIR      78  69  76 NE5       29.98R
MINERAL WELLS  FAIR      76  72  87 N5        29.95R
STEPHENVILLE   FAIR      79  71  75 CALM      29.99S
COMANCHE       FAIR      78  72  82 E3        29.97S
BROWNWOOD      MOCLDY    77  75  94 CALM      29.97S
COLEMAN        FAIR      79  67  66 CALM      29.98S
$$

TXZ143>147-156>162-174-175-240300-
CENTRAL TEXAS

CITY           SKY/WX    TMP DP  RH WIND       PRES   REMARKS
WACO           MOCLDY    78  70  76 SW7       29.92F
HILLSBORO      CLOUDY    79  71  75 S7        29.95R
CORSICANA      CLOUDY    78  73  84 E9        29.95R
MEXIA          FAIR      72  71  95 W5        29.89R
HEARNE         RAIN      75  74  97 NE6       29.93S
CAMERON        FAIR      75  73  94 E3        29.92R
TEMPLE         LGT RAIN  75  72  90 CALM      29.91F
KILLEEN        MOCLDY    73  71  95 N5        29.92F
KILLEEN-SKYLRK FAIR      74  72  93 N7        29.93F
FORT HOOD      FAIR     N/A N/A N/A NE7       29.90F
GATESVILLE     FAIR      73  72  94 CALM      29.96S
HAMILTON       FAIR      77  69  76 S6        29.97S
$$

TXZ095>097-106>112-122>126-135>138-148>153-164>167-240300-
EAST TEXAS

CITY           SKY/WX    TMP DP  RH WIND       PRES   REMARKS
PARIS          FAIR      78  74  87 NE3       29.95S
SULPHUR SPRNGS FAIR      78  72  80 CALM      29.95F
MOUNT PLEASANT FAIR      77  76  95 CALM      29.95R
GILMER         FAIR      74  72  94 CALM      29.93R
MINEOLA        FAIR      75  72  88 CALM      29.92S
TYLER          FAIR      75  73  93 N5        29.93R
LONGVIEW       MOCLDY    78  76  93 E5        29.92R
MARSHALL         N/A     77  70  79 S5        29.96R
ATHENS         FAIR      77  68  73 CALM      29.93R
PALESTINE      CLOUDY    77  70  79 SE6       29.96R
JACKSONVILLE   MOCLDY    74  73  96 E8        29.96R THUNDER
HENDERSON      FAIR      76  73  91 E3        29.95R
CENTER         FAIR      83  77  83 CALM      29.94S HX  92
NACOGDOCHES    LGT RAIN  75  71  87 N8        29.95R
LUFKIN         FAIR      80  73  79 SE3       29.92R
$$

SUPPLEMENTAL OBSERVATIONS (NWS FORT WORTH AREA)

CITY           SKY/WX    TMP DP  RH WIND       PRES   REMARKS
DENISON DAM      N/A     79  72  78 E2          N/A
CADDO GRASSLND   N/A     79  73  83 CALM        N/A
PAT MAYSE LAKE   N/A     77  75  94 NE5         N/A
GREENVILLE       N/A     79  72  78 N5          N/A
CEDAR HILL       N/A     82  70  65 NE3G14      N/A
LBJ GRASSLAND    N/A     77  73  88 NE1         N/A
POSSUM KINGDOM   N/A     79  72  78 E3          N/A
GRANBURY         N/A     81  72  74 N5          N/A
COMANCHE         N/A     79  72  78 NE2         N/A
MCGREGOR         N/A     73  68  83 W3          N/A
TEMPLE           N/A     75  70  83 N5          N/A
LAKE LIMESTONE   N/A     75  72  88 SE2         N/A
$$

SUPPLEMENTAL OBSERVATIONS (NWS NORMAN AREA)

CITY           SKY/WX    TMP DP  RH WIND       PRES   REMARKS
GOODLETT         N/A     75  68  80 NE6       30.01R
ODELL            N/A     74  69  84 NE6       30.01R
CROWELL          N/A     78  72  80 NE9       30.01R
KNOX CITY        N/A     79  68  68 E5        30.00R
SEYMOUR          N/A     81  70  70 E6        29.99R
MILLERS CREEK    N/A     79  70  73 E3          N/A
$$

SUPPLEMENTAL OBSERVATIONS (NWS SAN ANGELO AREA)

CITY           SKY/WX    TMP DP  RH WIND       PRES   REMARKS
WEINERT          N/A     78  68  72 E3        30.00R
HASKELL          N/A     78  66  66 E5        30.00R
THROCKMORTON     N/A     79  70  74 E2        30.00R
STAMFORD         N/A     78  69  72 NE5       30.00R
CLYDE            N/A     78  71  79 E3        30.02R
HAMBY            N/A     79  64  61 E3          N/A
IVIE RESERVOIR   N/A     77  66  69 SE3         N/A
COLORADO BEND    N/A     77  66  69 N1          N/A
$$

SUPPLEMENTAL OBSERVATIONS (NWS SHREVEPORT AREA)

CITY           SKY/WX    TMP DP  RH WIND       PRES   REMARKS
CADDO LAKE       N/A     79  77  94 CALM        N/A
LUFKIN           N/A     82  73  74 MISG        N/A
N SABINE NF      N/A     75  70  83 MISG        N/A
$$

SUPPLEMENTAL OBSERVATIONS ARE A COLLECTION OF AUTOMATED INSTRUMENTS
THAT ARE MAINTAINED BY A VARIETY OF FEDERAL AND STATE AGENCIES.
CERTAIN ELEMENTS...SUCH AS HUMIDITY VALUES AND SUSTAINED WIND
SPEEDS...MAY BE APPROXIMATED.




USA.gov is the U.S. government's official web portal to all federal, state and local government web resources and services.